Location: Ernez
(36.4595°N, 29.8755°E)
Time: 09:45:35
(UTC+00:00)

Cosmos 44 Rocket - Pass Details

Date: 13 November 2025
Orbit: 637 x 741 km, 65.1° (Epoch: 05 December)

Event Time Altitude Azimuth Distance (km) Brightness Sun altitude
Rises 16:39:20 0° 215° (SW) 2,957 7.2 -21.4°
Reaches altitude 10° 16:41:36 10° 218° (SW) 2,063 6.3 -21.9°
Maximum altitude 16:46:15 68° 301° (WNW) 725 3.4 -22.8°
Enters shadow 16:48:08 36° 13° (NNE) 1,069 4.1 -23.2°
